Change the Weather History Date:

Saturday, March 2, 2013

  Actual Average (KISP) Record (KISP)
Temperature  
Mean Temperature 37 °F 36 °F  
Max Temperature 39 °F 43 °F 60 °F (1997)
Min Temperature 34 °F 28 °F 15 °F (2009)
Degree Days  
Heating Degree Days 28 29  
Month to date heating degree days 59  
Since 1 July heating degree days 3954  
Cooling Degree Days 0 0  
Month to date cooling degree days 0  
Year to date cooling degree days 0  
Moisture  
Dew Point 24 °F    
Average Humidity 60    
Maximum Humidity 70    
Minimum Humidity 53    
Precipitation  
Precipitation 0.00 in 0.14 in 2.14 in (2007)
Month to date precipitation 0.28  
Year to date precipitation 7.18  
Snow  
Snow 0.00 in 0.20 in 9.70 in (2009)
Month to date snowfall 0.4  
Since 1 July snowfall 20.1  
Snow Depth -    
Sea Level Pressure  
Sea Level Pressure 29.72 in    
Wind  
Wind Speed 10 mph (NW)    
Max Wind Speed 15 mph    
Max Gust Speed 22 mph    
Visibility 10 miles    
Events      
T = Trace of Precipitation, MM = Missing Value Source: NWS Daily Summary

Daily Weather History Graph

Daily Weather History Graph

Search for Another Location

Airport or City:

Trip Planner

Search our weather history database for the weather conditions in past years. The results will help you decide how hot, cold, wet, or windy it might be!

Date:

Astronomy

Mar. 02, 2013 Rise Set
Actual Time 6:23 AM EST 5:44 PM EST
Civil Twilight 5:56 AM EST 6:11 PM EST
Nautical Twilight 5:24 AM EST 6:43 PM EST
Astronomical Twilight 4:52 AM EST 7:15 PM EST
Moon 11:23 PM EST (3/2) 8:47 AM EST (3/2)
Length of Visible Light 12h 15m
Length of Day
11h 20m
Waning Gibbous, 74% of the Moon is Illuminated
Mar 2
Waning Gibbous
Mar 4
Last Quarter
Mar 11
New
Mar 19
First Quarter
Mar 27
Full

Hourly Weather History & Observations

Time (EST) Temp. Windchill Dew Point Humidity Pressure Visibility Wind Dir Wind Speed Gust Speed Precip Events Conditions
12:56 AM 37.0 °F 29.8 °F 26.1 °F 65% 29.75 in 10.0 mi NNW 10.4 mph - N/A   Overcast
1:56 AM 37.0 °F 30.4 °F 25.0 °F 62% 29.74 in 10.0 mi NNW 9.2 mph - N/A   Overcast
2:56 AM 35.1 °F 27.9 °F 24.1 °F 64% 29.74 in 10.0 mi NNW 9.2 mph - N/A   Mostly Cloudy
3:56 AM 36.0 °F 27.5 °F 24.1 °F 62% 29.74 in 10.0 mi NW 12.7 mph - N/A   Overcast
4:56 AM 36.0 °F 28.5 °F 25.0 °F 64% 29.75 in 10.0 mi NW 10.4 mph - N/A   Overcast
5:56 AM 35.1 °F 28.6 °F 24.1 °F 64% 29.74 in 10.0 mi NW 8.1 mph - N/A   Overcast
6:56 AM 35.1 °F 28.6 °F 24.1 °F 64% 29.75 in 10.0 mi NW 8.1 mph - N/A   Overcast
7:56 AM 36.0 °F 26.7 °F 24.1 °F 62% 29.75 in 10.0 mi NNW 15.0 mph 21.9 mph N/A   Overcast
8:56 AM 37.0 °F 28.9 °F 24.1 °F 59% 29.75 in 10.0 mi NNW 12.7 mph 21.9 mph N/A   Mostly Cloudy
9:56 AM 39.0 °F 32.3 °F 24.1 °F 55% 29.74 in 10.0 mi NW 10.4 mph - N/A   Mostly Cloudy
10:56 AM 39.0 °F 32.3 °F 24.1 °F 55% 29.74 in 10.0 mi NW 10.4 mph - N/A   Overcast
12:56 PM 39.0 °F 32.3 °F 23.0 °F 53% 29.72 in 10.0 mi NW 10.4 mph - N/A   Overcast
1:56 PM 39.0 °F 33.4 °F 24.1 °F 55% 29.70 in 10.0 mi NW 8.1 mph 17.3 mph N/A   Overcast
2:56 PM 39.9 °F 35.1 °F 24.1 °F 53% 29.68 in 10.0 mi WNW 6.9 mph - N/A   Overcast
3:56 PM 39.9 °F 33.4 °F 24.1 °F 53% 29.68 in 10.0 mi NW 10.4 mph - N/A   Overcast
4:56 PM 39.0 °F 33.4 °F 25.0 °F 57% 29.69 in 10.0 mi NW 8.1 mph - N/A   Overcast
5:56 PM 37.9 °F 33.5 °F 24.1 °F 57% 29.70 in 10.0 mi NW 5.8 mph - N/A   Overcast
6:56 PM 37.9 °F 33.5 °F 25.0 °F 60% 29.71 in 10.0 mi NW 5.8 mph - N/A   Overcast
7:56 PM 37.0 °F 31.6 °F 24.1 °F 59% 29.71 in 10.0 mi NNW 6.9 mph - N/A   Overcast
8:56 PM 37.0 °F 30.4 °F 24.1 °F 59% 29.72 in 10.0 mi NNW 9.2 mph - N/A   Overcast
9:56 PM 36.0 °F 27.5 °F 25.0 °F 64% 29.71 in 10.0 mi NW 12.7 mph - N/A   Overcast
10:56 PM 35.1 °F 26.9 °F 25.0 °F 67% 29.70 in 10.0 mi NW 11.5 mph - N/A   Overcast
11:56 PM 34.0 °F 28.0 °F 25.0 °F 70% 29.70 in 10.0 mi NW 6.9 mph - N/A   Overcast